Location: Borovka
(49.7741°N, 14.5280°E)
Time: 18:08:10
(UTC+00:00)

JY1SAT - Visible Passes

Search period start: 07 March 2026 00:00
Search period end: 17 March 2026 00:00
Orbit: 472 x 478 km, 97.4° (Epoch: 7 March)

Date Brightness Start Highest point End Pass type
(mag) Time Alt. Az. Time Alt. Az. Time Alt. Az.
7 Mar ? 19:13:57 12° NNE 19:13:57 12° NNE 19:14:22 10° N visible
8 Mar ? 20:20:26 12° NNW 20:20:26 12° NNW 20:20:46 10° NNW visible
9 Mar ? 19:52:44 15° N 19:52:44 15° N 19:53:26 10° N visible
10 Mar ? 19:24:58 15° NNE 19:24:58 15° NNE 19:25:49 10° N visible
11 Mar ? 18:57:10 13° NNE 18:57:10 13° NNE 18:57:46 10° NNE visible
11 Mar ? 20:31:20 13° NNW 20:31:20 13° NNW 20:31:47 10° NNW visible
12 Mar ? 20:03:28 17° NNW 20:03:28 17° NNW 20:04:25 10° NNW visible
13 Mar ? 19:35:34 19° N 19:35:34 19° N 19:36:46 10° N visible
14 Mar ? 19:07:37 16° NNE 19:07:37 16° NNE 19:08:44 10° NNE visible
14 Mar ? 20:41:45 14° NW 20:41:45 14° NW 20:42:20 10° NNW visible
15 Mar ? 18:39:37 11° NE 18:39:37 11° NE 18:39:58 10° NE visible
15 Mar ? 20:13:46 20° NNW 20:13:46 20° NNW 20:14:55 10° NNW visible
16 Mar ? 19:45:42 23° N 19:45:42 23° N 19:47:12 10° N visible
